Flag for China Weather past 2 weeks in Lanchow, China

Now
36 °F

Light rain. Overcast.


Feels Like: 31 °F
Forecast: 39 / 60 °F
Wind: 6 mph from Southwest

Location: Lanzhou / Zhongchuan


UV Index: 5 (Moderate)

Visibility: N/A


Pressure: 30.30 "Hg

Humidity: 93%

Dew point: 34 °F

Location of LanchowLocation

Historic Weather in Lanchow

°F

Lanchow temperature yesterday

Maximum temperature yesterday: 48 °F (at 12:00 AM)
Minimum temperature yesterday: 41 °F (at 6:00 AM)
Average temperature yesterday: 45 °F

Past Weeks' High & Low Weather Summary

 TemperatureHumidityPressure
High75 °F (Apr 8, 5:00 PM)100% (Apr 15, 5:00 AM)30.30 "Hg (Apr 15, 5:00 AM)
Low28 °F (Apr 4, 7:00 AM)6% (Apr 8, 5:00 PM)29.74 "Hg (Apr 14, 5:00 PM)
Average50 °F58%30.03 "Hg
* Reported Apr 4 4:00 AM — Apr 19 4:00 AM, Lanchow, Weather by CustomWeather, © 2014

Note: Actual official high and low records may vary slightly from our data, if they occured in-between our weather recording intervals... More about our weather records

Advertising

Historic Weather Conditions — Data for Previous 24 hours

 ConditionsComfort  
Time TempWeatherWind HumidityBarometerVisibility
4:00 AM
Apr 19
36 °FLight rain. Overcast.1 mph93%30.30 "HgN/A
3:00 AM36 °FLight rain. Overcast.3 mph93%30.30 "HgN/A
2:00 AM36 °FLight rain. Overcast.6 mph93%30.30 "HgN/A
1:00 AM37 °FLight rain. Overcast.13 mph93%30.27 "HgN/A
12:00 AM41 °FLight rain. Overcast.10 mph81%30.27 "HgN/A
11:00 PM
Apr 18
43 °FLight rain. Overcast.6 mph81%30.24 "HgN/A
10:00 PM43 °FLight rain. Overcast.10 mph81%30.24 "HgN/A
9:00 PM43 °FOvercast.8 mph81%30.21 "HgN/A
8:00 PM45 °FOvercast.8 mph76%30.18 "HgN/A
7:00 PM45 °FMore clouds than sun.8 mph76%30.15 "HgN/A
6:00 PM46 °FPartly sunny.8 mph71%30.15 "HgN/A
5:00 PM48 °FBroken clouds.8 mph66%30.12 "HgN/A
4:00 PM46 °FLight rain. Broken clouds.1 mph76%30.12 "HgN/A
3:00 PM45 °FLight rain. More clouds than sun.1 mph81%30.15 "HgN/A
2:00 PM46 °FMore clouds than sun.1 mph71%30.15 "HgN/A
1:00 PM46 °FLight rain. More clouds than sun.3 mph76%30.15 "HgN/A
12:00 PM46 °FMore clouds than sun.3 mph71%30.15 "HgN/A
11:00 AM45 °FOvercast.3 mph76%30.15 "HgN/A
10:00 AM45 °FLight rain. Overcast.6 mph76%30.15 "HgN/A
9:00 AM45 °FOvercast.8 mph71%30.12 "HgN/A
8:00 AM43 °FLight rain. Overcast.8 mph76%30.09 "HgN/A
7:00 AM43 °FLight rain. Overcast.6 mph81%30.07 "HgN/A
6:00 AM41 °FLight rain. Overcast.13 mph87%30.04 "HgN/A
5:00 AM43 °FLight rain. Overcast.10 mph81%30.01 "HgN/A
Weather by CustomWeather, © 2014

See weather overview